Temperature
28 24 24 24 25 26 27 28 28 28 29 28 27 26 26 26 25 24 23 23 23 22 22 22 22 21 21 20 20 20 20 19 19 19 19 19 18 18 18 18 18 18 18 18
24 24 25 27 28 28 28 28 27 28 29 28 26 26 26 25 25 24 23 23 23 22 22 21 21 21 21 20 20 20 19 19 19 19 19 19 18 18 18 18 18 18 18 18
25 25 28 28 28 28 28 28 28 28 27 26 26 25 24 24 25 24 24 23 23 22 22 21 21 21 20 20 20 19 19 19 19 19 18 18 18 18 18 18 18 18 18 18
25 27 28 28 28 28 27 28 29 28 26 24 26 23 24 23 23 23 23 23 23 22 22 22 21 21 20 20 20 19 19 19 19 18 18 18 18 18 18 18 18 18 18 18
25 27 28 28 29 30 29 29 29 28 26 24 24 23 23 23 23 22 22 23 23 22 22 22 21 21 21 20 20 19 19 19 18 18 18 18 18 18 18 18 18 18 18 18
26 27 28 29 30 30 30 27 25 22 22 23 24 23 23 22 23 23 22 23 22 22 22 22 21 21 20 20 19 19 19 19 18 18 18 18 18 18 18 18 18 18 18 18
26 27 28 30 29 29 27 23 22 23 21 22 23 23 22 23 24 23 23 23 23 22 22 21 21 21 20 20 19 19 19 19 18 18 18 18 18 18 18 18 18 18 18 18
25 24 27 29 28 27 27 23 22 23 22 22 22 23 23 24 24 25 24 23 23 22 22 22 21 21 20 20 20 19 19 19 18 18 18 18 18 18 18 18 18 18 18 18
24 24 27 29 29 28 28 24 22 21 22 22 22 23 24 23 23 23 23 23 22 22 22 22 21 21 20 20 20 19 19 19 19 18 18 18 18 18 18 18 18 18 18 18
25 25 26 28 29 28 27 25 21 21 22 22 23 23 22 22 22 22 22 22 22 22 22 22 22 21 20 20 20 19 19 19 19 19 18 18 18 18 18 18 18 18 18 18
24 24 25 26 27 27 28 27 22 19 20 21 22 22 23 22 22 22 22 22 22 22 22 22 22 21 21 20 20 19 19 19 19 19 19 18 18 18 18 17 18 18 17 17
23 21 22 24 26 27 26 25 22 22 22 20 20 21 23 22 22 22 22 23 23 22 22 22 22 21 21 20 20 20 19 19 19 19 19 18 18 18 18 18 18 17 17 17
23 21 22 23 24 26 27 26 23 20 20 20 21 22 23 22 22 23 22 23 23 22 22 22 21 21 21 20 20 20 20 19 19 19 18 18 18 18 18 17 17 17 17 17
23 20 21 23 23 25 26 27 26 22 21 21 22 22 22 22 21 22 22 22 22 22 22 22 22 21 21 20 20 20 20 19 19 19 18 18 18 18 18 17 17 17 17 17
22 22 23 23 25 26 26 26 26 24 22 22 22 22 22 21 21 22 22 22 22 22 22 22 22 21 21 20 20 20 20 19 19 19 18 18 18 17 17 17 17 17 16 16
20 22 23 24 25 26 26 26 26 25 25 23 23 22 21 22 22 22 22 22 22 22 22 22 22 21 21 21 20 20 19 19 19 18 18 18 18 17 17 17 16 16 16 16
20 21 21 22 23 24 24 24 25 24 24 23 22 22 21 20 21 21 22 22 22 22 22 22 22 21 21 21 20 20 19 19 18 18 18 18 17 17 17 16 16 16 16 16
20 19 18 20 23 23 22 23 24 23 22 22 21 21 21 21 22 22 22 22 22 22 22 22 22 21 21 21 20 20 19 19 18 18 18 17 17 17 16 16 16 16 15 15
19 19 18 18 21 22 23 23 23 22 21 21 21 21 21 21 21 20 21 22 22 22 22 22 22 21 21 20 20 19 19 18 18 18 17 17 17 17 16 16 16 15 15 15
18 18 18 18 21 21 21 22 23 22 20 20 20 20 20 21 19 19 21 22 22 22 22 22 21 21 20 20 19 19 18 18 18 17 17 17 16 16 16 16 15 15 15 14
19 19 18 19 20 20 21 22 22 21 19 20 20 20 20 19 19 20 21 21 21 21 21 21 21 20 20 19 19 19 18 18 17 17 17 16 16 16 16 15 15 14 14 14
18 18 18 17 19 19 20 21 19 19 20 20 20 20 20 20 20 20 20 20 20 20 20 20 20 19 19 18 18 18 18 17 17 16 16 16 16 16 15 15 14 14 14 14
17 17 16 17 17 18 20 20 20 21 20 20 20 20 20 20 19 20 20 20 20 20 19 19 19 18 18 18 18 17 17 17 16 16 16 15 15 15 15 14 14 14 13 13
17 17 16 16 17 18 19 20 21 21 21 21 21 20 20 20 19 19 19 19 19 19 18 18 18 18 17 17 17 17 17 16 16 16 15 15 15 14 14 14 13 13 13 13
16 16 15 16 16 18 19 19 20 20 20 20 20 20 20 20 19 19 18 18 18 18 18 17 17 17 17 16 16 16 16 16 16 15 15 14 14 14 14 13 13 13 13 13
15 15 15 15 16 16 18 19 19 20 20 20 19 19 19 19 18 18 18 17 17 17 17 17 16 16 16 16 16 16 15 15 15 15 14 14 14 13 13 13 12 12 12 12
Wind_Speed
2 3 4 8 7 7 5 4 4 4 1 3 4 4 7 10 11 11 10 10 10 9 7 8 9 10 9 7 7 7 8 7 6 4 4 3 2 2 2 4 7 9 10 9
4 5 11 8 7 5 4 3 4 5 3 4 3 1 4 8 11 13 14 12 11 9 7 8 8 9 8 8 7 7 7 7 7 5 4 3 3 2 3 3 5 8 9 9
7 8 6 5 6 5 5 2 2 2 5 6 6 6 3 1 4 7 9 10 10 11 11 10 9 8 8 8 8 8 7 7 7 6 4 3 2 1 1 2 3 5 8 9
7 9 7 6 6 3 5 5 0 3 5 2 3 1 4 1 1 5 7 8 10 11 11 10 9 9 8 8 7 7 7 7 6 6 6 6 5 4 5 4 4 4 6 7
7 5 5 6 7 4 5 3 2 2 3 4 4 4 5 1 1 4 7 10 10 10 11 11 10 10 8 7 7 7 7 7 6 6 7 6 4 4 3 3 4 4 3 5
9 7 5 7 5 3 1 6 8 7 6 3 3 4 4 3 5 6 7 9 10 10 10 10 9 8 6 6 6 6 7 6 6 6 6 6 5 4 4 4 4 3 3 3
7 8 6 3 1 4 6 7 5 6 5 4 3 3 5 5 5 8 10 10 10 10 10 10 9 8 7 7 7 6 7 6 6 6 6 6 6 6 6 5 5 4 3 3
4 7 6 4 7 5 3 10 7 4 3 5 5 1 4 1 3 6 8 9 11 10 10 10 10 9 9 8 8 7 7 6 6 6 5 5 5 4 4 4 4 4 3 3
6 7 7 6 6 9 4 4 9 7 1 1 4 2 4 3 7 7 7 7 9 10 11 10 9 8 8 8 8 8 8 6 5 5 5 4 4 4 4 4 4 3 2 3
7 4 7 4 2 4 8 8 7 5 3 1 3 3 4 4 4 6 7 7 7 8 9 9 9 8 7 7 6 6 7 6 5 5 4 4 4 4 4 3 3 3 2 2
8 4 7 4 5 7 4 5 6 5 6 6 2 6 6 9 9 9 8 9 9 9 8 8 7 7 7 6 7 6 6 5 5 5 4 3 3 4 4 3 3 3 2 2
8 6 4 7 7 7 7 8 8 5 4 5 5 6 4 9 8 9 9 10 9 9 8 7 7 7 7 7 7 6 6 5 5 4 4 4 3 4 4 3 3 3 3 2
9 7 1 7 7 3 2 4 6 7 5 5 5 5 2 4 5 7 9 9 8 8 7 7 6 7 7 7 6 6 6 6 5 5 5 4 3 4 4 4 3 3 3 3
8 6 7 9 7 3 3 4 3 6 5 5 7 6 3 5 7 8 9 9 9 8 9 8 7 7 7 7 7 6 5 5 5 5 5 4 4 4 4 4 4 4 4 4
8 6 5 5 4 1 1 5 3 4 8 8 8 9 9 9 9 10 10 10 10 9 8 9 8 7 7 7 7 7 7 6 6 6 5 4 4 5 5 4 4 4 4 4
5 5 3 2 3 4 4 5 3 3 4 5 7 5 4 5 6 7 8 10 9 8 8 8 7 7 7 7 7 7 7 7 7 7 6 5 5 6 5 4 4 5 5 4
4 6 5 1 4 5 4 5 2 2 1 5 6 6 6 6 7 7 8 10 9 8 7 7 7 8 7 7 7 7 7 7 7 7 7 6 6 6 5 5 5 5 5 4
7 6 5 3 4 2 7 3 3 5 5 4 5 7 10 8 6 5 6 9 8 8 8 7 6 6 6 6 6 6 7 7 7 7 7 7 7 6 6 6 5 5 4 5
7 8 5 4 2 4 5 4 2 4 5 4 6 7 7 7 7 5 2 5 7 8 8 8 7 7 6 7 7 7 7 6 7 6 6 6 7 7 6 6 5 5 5 5
7 7 6 5 4 4 5 6 2 7 3 4 5 6 5 6 5 1 0 3 4 5 5 6 7 7 7 6 7 8 7 6 5 5 6 6 6 7 6 5 5 5 5 5
4 5 5 4 3 4 5 6 3 4 4 2 3 5 5 4 5 4 3 4 4 6 6 6 7 7 6 6 7 7 6 5 5 5 6 6 6 6 6 5 5 6 6 5
5 5 4 5 3 5 5 3 4 5 3 4 6 5 6 7 7 6 6 6 6 6 6 6 6 5 4 6 7 7 5 5 6 7 6 6 5 5 5 6 5 5 6 6
3 6 6 6 5 3 2 5 5 6 6 5 6 6 8 8 7 7 6 5 6 6 5 5 6 5 4 4 6 7 5 6 8 7 6 5 5 4 4 5 5 5 4 5
4 3 5 5 3 3 5 5 4 4 7 7 8 8 8 8 7 6 6 5 6 6 5 5 6 5 4 3 4 5 6 6 8 7 6 6 6 5 5 4 3 4 4 4
3 3 5 4 3 6 6 4 4 5 7 9 8 7 7 8 7 6 5 5 5 5 5 4 4 5 4 4 4 4 5 7 7 7 6 6 5 6 6 5 4 2 2 2
3 2 4 3 3 4 1 2 4 6 6 7 8 7 5 7 7 6 5 4 5 4 5 5 5 5 5 5 4 4 4 6 8 6 5 5 5 5 5 6 5 9 6 5
Wind_Direction
320 68 252 246 227 217 256 299 310 284 232 92 106 132 161 165 159 158 158 163 168 170 163 150 149 150 147 151 155 159 156 160 155 149 149 145 151 161 172 184 178 181 183 176
10 270 244 247 263 275 292 321 328 335 25 72 87 70 166 164 175 175 166 165 166 154 148 148 147 150 154 160 161 158 162 164 168 165 160 160 154 169 185 195 186 186 186 183
220 247 260 260 271 289 302 276 286 316 17 36 70 8 2 42 157 165 160 160 161 161 164 160 155 156 156 163 169 172 167 168 174 162 143 134 112 106 156 193 200 203 195 192
247 254 263 272 264 219 270 268 308 47 54 326 86 154 297 279 112 166 164 160 163 164 164 160 157 157 163 170 167 164 164 167 173 164 162 168 175 193 207 199 201 204 195 193
256 258 247 249 250 206 228 268 47 58 71 18 16 119 282 350 144 187 174 168 161 162 161 162 166 166 169 169 166 166 164 169 173 171 172 179 190 202 204 193 184 196 199 194
256 270 236 226 245 218 117 38 26 42 62 13 279 146 260 236 199 180 180 168 160 159 158 156 157 154 158 163 164 164 167 176 179 180 180 186 192 195 190 184 181 195 198 201
302 297 273 233 252 340 75 75 28 5 12 267 281 129 243 242 186 166 173 172 167 160 154 152 153 157 161 165 169 167 170 179 184 187 194 199 196 189 189 187 189 194 197 210
232 281 261 212 175 175 155 132 151 188 222 285 339 194 262 225 143 139 154 160 159 158 157 159 166 165 169 172 172 171 174 182 185 187 194 195 188 186 191 188 181 188 197 210
197 254 273 233 183 148 149 165 165 138 160 349 319 318 349 53 92 101 125 146 163 162 160 162 167 169 172 174 177 176 176 182 185 179 173 178 176 177 180 178 179 187 194 201
179 257 290 267 135 160 157 152 95 108 142 255 307 284 213 193 142 128 136 155 164 158 157 161 164 171 174 172 170 166 170 175 174 172 170 168 169 170 169 163 168 169 179 174
173 201 299 349 177 193 164 131 115 126 150 148 219 271 228 193 173 159 159 161 159 159 162 164 168 172 165 157 157 158 159 158 161 165 161 153 160 161 151 150 159 159 160 153
172 149 244 269 257 193 166 171 146 153 210 156 159 261 256 183 172 155 159 163 160 162 164 159 162 163 156 154 156 158 159 159 166 166 157 156 151 145 143 150 156 154 151 140
153 132 129 337 338 353 170 181 159 140 131 149 155 245 273 169 156 150 152 155 151 152 160 157 154 163 160 156 157 159 160 162 160 153 149 149 141 137 140 145 141 135 125 107
130 120 158 189 211 236 283 272 173 131 158 197 199 202 246 184 167 154 151 150 152 160 165 164 161 164 162 162 163 163 163 159 150 143 142 143 137 134 131 121 113 111 109 103
116 139 165 189 204 159 295 285 262 192 188 183 200 188 207 198 171 158 153 149 151 159 165 167 164 164 163 161 165 165 162 155 148 139 138 140 129 117 108 102 100 102 101 105
93 124 112 8 7 16 337 311 296 255 200 171 154 192 206 173 137 133 144 144 150 162 170 165 159 153 157 161 165 165 165 158 149 144 144 140 130 119 117 116 111 105 100 95
90 109 103 316 349 36 322 283 249 269 290 160 174 192 155 138 138 154 155 145 148 155 155 154 160 158 167 168 161 164 162 152 149 150 148 145 137 135 136 129 118 114 109 98
119 104 114 102 58 232 249 294 98 82 32 72 127 144 146 153 147 130 142 146 150 154 149 151 163 160 161 156 153 152 147 146 147 146 148 150 145 144 138 129 127 125 116 108
124 123 110 114 148 274 304 332 16 95 24 23 104 120 132 126 90 49 69 136 157 159 155 154 158 156 150 151 150 141 140 141 144 149 150 150 148 144 139 137 135 130 118 108
74 98 110 118 141 213 264 301 309 103 44 345 102 128 134 112 111 201 35 97 117 119 127 134 137 133 138 144 140 136 141 139 146 151 146 143 141 141 143 144 134 125 121 119
67 72 119 136 165 252 273 300 39 105 206 272 113 129 127 122 154 164 119 87 91 100 106 114 121 129 139 134 131 133 136 146 144 133 128 127 133 139 138 132 128 128 124 119
160 147 164 141 158 248 297 37 111 169 171 114 100 101 105 105 99 93 90 91 88 87 90 97 102 104 108 120 127 132 141 141 129 126 126 125 124 129 131 129 129 132 133 127
154 179 167 161 187 233 26 107 135 138 117 109 107 104 109 105 99 95 89 92 97 97 95 97 105 96 88 108 132 138 142 131 129 128 126 119 112 109 118 129 136 136 136 137
340 44 95 86 67 67 61 74 81 95 104 105 108 112 111 109 108 101 99 92 93 94 94 96 99 100 93 97 111 133 136 130 130 130 127 124 119 107 94 92 112 135 147 150
321 44 72 85 81 54 33 37 71 87 90 91 95 102 111 115 110 106 102 96 92 92 91 97 105 107 98 87 92 111 125 128 127 128 128 123 117 115 97 80 62 92 111 162
335 111 124 167 208 141 137 24 59 85 95 102 100 89 91 109 113 109 103 99 97 95 95 93 94 99 98 93 87 87 104 125 129 129 130 128 124 120 119 113 85 53 65 76
Height
1515 1521 1526 1521 1518 1519 1519 1521 1522 1514 1505 1508 1513 1515 1514 1515 1517 1519 1521 1524 1527 1529 1531 1533 1534 1536 1538 1540 1541 1543 1545 1547 1549 1551 1553 1555 1557 1559 1560 1562 1563 1564 1566 1568
1522 1524 1514 1511 1511 1513 1516 1521 1521 1513 1506 1510 1516 1518 1514 1514 1515 1516 1518 1522 1525 1527 1530 1532 1533 1535 1537 1538 1540 1541 1543 1545 1547 1549 1552 1554 1556 1557 1559 1560 1561 1563 1565 1566
1523 1516 1508 1510 1512 1515 1516 1518 1518 1518 1513 1512 1518 1527 1521 1517 1516 1517 1519 1521 1524 1526 1528 1530 1532 1534 1536 1537 1538 1540 1541 1543 1545 1547 1550 1552 1554 1556 1557 1559 1560 1561 1563 1565
1517 1509 1508 1510 1511 1512 1521 1509 1510 1513 1524 1533 1526 1547 1531 1522 1520 1518 1520 1521 1523 1525 1526 1529 1531 1533 1535 1536 1537 1539 1540 1541 1543 1545 1548 1549 1551 1553 1554 1556 1558 1559 1561 1563
1515 1507 1508 1510 1506 1505 1509 1504 1508 1513 1523 1534 1532 1544 1539 1525 1525 1522 1520 1520 1522 1524 1526 1528 1530 1532 1534 1535 1536 1537 1539 1540 1542 1544 1546 1548 1549 1551 1553 1555 1556 1557 1559 1561
1509 1502 1503 1502 1499 1499 1501 1508 1515 1524 1534 1550 1538 1542 1543 1530 1522 1520 1520 1521 1522 1524 1526 1528 1530 1532 1533 1534 1535 1537 1538 1539 1541 1542 1544 1546 1547 1549 1551 1552 1554 1555 1557 1558
1512 1504 1498 1497 1502 1501 1506 1530 1552 1553 1562 1557 1536 1540 1539 1519 1514 1515 1518 1520 1522 1524 1526 1528 1530 1532 1533 1534 1535 1536 1537 1538 1539 1541 1542 1543 1545 1547 1548 1550 1552 1553 1555 1556
1525 1523 1501 1495 1500 1508 1511 1527 1554 1563 1566 1557 1540 1541 1530 1513 1513 1513 1517 1520 1522 1524 1526 1528 1529 1531 1532 1533 1534 1535 1536 1537 1538 1539 1540 1542 1543 1545 1546 1548 1549 1551 1552 1553
1522 1520 1496 1492 1492 1498 1510 1521 1526 1546 1551 1558 1550 1536 1524 1515 1515 1515 1518 1521 1523 1524 1526 1528 1529 1531 1532 1533 1534 1535 1536 1536 1537 1538 1539 1540 1542 1543 1545 1546 1548 1549 1550 1551
1507 1515 1501 1492 1491 1494 1500 1510 1531 1545 1559 1565 1553 1545 1539 1525 1520 1518 1520 1522 1523 1525 1526 1528 1530 1531 1532 1533 1534 1535 1536 1536 1537 1538 1538 1539 1541 1542 1543 1545 1546 1547 1548 1549
1501 1514 1510 1501 1502 1504 1504 1510 1525 1541 1547 1561 1564 1552 1521 1519 1516 1517 1519 1520 1522 1525 1527 1528 1530 1531 1532 1533 1534 1535 1536 1537 1537 1538 1538 1539 1540 1541 1542 1543 1544 1545 1546 1547
1497 1512 1521 1509 1495 1490 1497 1505 1520 1538 1543 1548 1555 1548 1512 1512 1512 1514 1517 1520 1521 1523 1526 1528 1530 1531 1532 1533 1534 1535 1536 1537 1537 1538 1538 1539 1539 1540 1541 1542 1543 1544 1545 1546
1493 1511 1527 1524 1513 1500 1499 1501 1509 1521 1535 1545 1551 1541 1512 1513 1513 1514 1516 1518 1521 1524 1526 1528 1530 1531 1531 1532 1533 1535 1536 1537 1537 1538 1538 1539 1539 1540 1540 1541 1542 1543 1544 1544
1484 1505 1519 1527 1522 1508 1505 1501 1502 1517 1534 1537 1534 1529 1518 1515 1514 1514 1515 1517 1520 1523 1526 1528 1528 1530 1531 1532 1533 1535 1535 1536 1537 1537 1538 1538 1539 1539 1540 1540 1541 1542 1542 1543
1483 1501 1502 1503 1500 1498 1500 1500 1500 1508 1515 1524 1522 1520 1515 1511 1510 1512 1513 1516 1519 1521 1524 1526 1527 1528 1530 1531 1533 1535 1535 1536 1536 1537 1537 1538 1538 1539 1539 1540 1540 1540 1541 1542
1485 1497 1499 1502 1497 1497 1500 1498 1498 1500 1503 1508 1511 1514 1507 1508 1509 1511 1513 1515 1518 1520 1522 1524 1526 1527 1529 1530 1532 1534 1534 1535 1535 1536 1536 1537 1538 1538 1538 1539 1539 1540 1540 1540
1490 1498 1510 1515 1504 1503 1513 1502 1500 1501 1499 1502 1510 1509 1506 1508 1509 1510 1512 1514 1516 1518 1520 1522 1524 1526 1528 1529 1531 1532 1533 1534 1535 1535 1536 1537 1537 1538 1538 1538 1539 1539 1539 1539
1490 1501 1513 1517 1513 1525 1515 1496 1495 1499 1501 1499 1500 1502 1504 1506 1508 1510 1512 1513 1515 1517 1519 1522 1524 1526 1527 1528 1529 1531 1532 1532 1533 1534 1535 1536 1536 1537 1537 1538 1538 1539 1539 1539
1483 1497 1513 1523 1525 1520 1506 1498 1497 1502 1508 1502 1501 1502 1505 1506 1510 1513 1514 1515 1515 1517 1518 1520 1522 1524 1525 1527 1528 1529 1530 1531 1532 1533 1534 1534 1535 1536 1536 1537 1538 1538 1538 1538
1486 1492 1509 1520 1522 1527 1513 1498 1495 1499 1514 1505 1502 1503 1505 1506 1514 1517 1514 1515 1515 1517 1518 1520 1521 1522 1524 1525 1526 1527 1528 1529 1530 1531 1532 1533 1534 1535 1535 1536 1537 1537 1538 1538
1499 1504 1511 1518 1522 1518 1503 1497 1496 1514 1517 1506 1503 1504 1506 1507 1510 1513 1513 1514 1515 1517 1518 1520 1521 1522 1523 1524 1525 1526 1527 1528 1529 1530 1531 1532 1533 1534 1535 1535 1536 1536 1537 1537
1503 1509 1513 1519 1524 1521 1500 1498 1504 1508 1504 1504 1504 1506 1507 1508 1510 1512 1514 1515 1516 1517 1518 1519 1521 1522 1523 1524 1525 1525 1526 1527 1528 1529 1530 1531 1532 1533 1533 1534 1535 1535 1536 1536
1499 1500 1504 1509 1514 1505 1500 1500 1502 1502 1503 1504 1505 1506 1509 1510 1511 1513 1515 1516 1517 1518 1519 1520 1521 1522 1523 1524 1525 1525 1525 1526 1527 1528 1529 1529 1530 1531 1532 1532 1533 1534 1534 1535
1496 1494 1499 1505 1506 1504 1503 1503 1504 1503 1503 1505 1506 1508 1510 1511 1512 1513 1515 1516 1517 1518 1520 1520 1521 1522 1522 1523 1524 1524 1525 1525 1526 1527 1527 1528 1528 1529 1530 1531 1531 1532 1533 1534
1499 1498 1502 1507 1506 1506 1506 1506 1506 1505 1505 1506 1507 1509 1511 1512 1513 1514 1516 1517 1518 1519 1520 1521 1521 1522 1522 1523 1523 1524 1524 1524 1525 1525 1526 1526 1527 1527 1528 1529 1530 1531 1532 1533
1500 1501 1505 1509 1507 1507 1508 1508 1508 1507 1507 1507 1508 1511 1513 1513 1514 1516 1517 1518 1519 1519 1520 1520 1521 1521 1521 1521 1522 1522 1523 1523 1524 1524 1524 1525 1525 1526 1527 1528 1529 1530 1531 1532